View from above orbital plane
|
View from above satellite
|
Ground track
|
The orbit data is extracted from the following two-line orbital elements,
1 00053U 60009E 21018.84789346 -.00000061 00000-0 23731-3 0 9991
2 00053 47.2781 314.7503 0100397 357.2936 2.7300 12.17251951694800
Epoch (UTC): | 18 January 2021 20:20:57 |
Eccentricity: | 0.0100397 |
inclination: | 47.2781° |
perigee height: | 1524 km |
apogee height: | 1684 km |
right ascension of ascending node: | 314.7503° |
argument of perigee: | 357.2936° |
revolutions per day: | 12.17251951 |
mean anomaly at epoch: | 2.7300° |
orbit number at epoch: | 69480 |
The dashed part of the orbit path shows where the satellite is in the earth's shadow,
|
|